EW6230 Weather Reports


Display with metric or nautical units.
time (UTC)temp
F
wind
direction
speed
MPH
gust
MPH
rain 1hr
in
rain 24hr
in
rain mn
in
humidity
%
barometer
mb
20260506204540 55 147 0.0 0.0 0.00 0.00 0.00 34 1016.9
20260506203101 56 147 0.0 0.0 0.00 0.00 0.00 31 1016.8
20260506201531 55 148 0.0 0.0 0.00 0.00 0.00 19 1016.8
20260506200031 54 185 0.0 0.0 0.00 0.00 0.00 14 1016.8
20260506194523 54 226 0.0 1.0 0.00 0.00 0.00 7 1016.8
20260506193018 53 230 0.0 1.0 0.00 0.00 0.00 3 1016.8
20260506191517 53 223 0.0 0.0 0.00 0.00 0.00 2 1016.8
20260506190009 52 65 0.0 0.0 0.00 0.00 0.00 3 1016.7
20260506184505 53 200 0.0 0.0 0.00 0.00 0.00 1 1016.5
20260506183000 52 200 0.0 0.0 0.00 0.00 0.00 1 1016.4
20260506181601 52 278 0.0 0.0 0.00 0.00 0.00 1 1016.4
20260506180054 52 278 0.0 0.0 0.00 0.00 0.00 1 1016.4
20260506174605 52 278 0.0 1.0 0.00 0.00 0.00 1 1016.3
20260506173053 52 89 0.0 2.0 0.00 0.00 0.00 1 1016.2
20260506171542 52 198 0.0 0.0 0.00 0.00 0.00 1 1016.2
20260506170036 52 198 0.0 0.0 0.00 0.00 0.00 1 1016.1
20260506164533 52 199 0.0 0.0 0.00 0.00 0.00 1 1016.0
20260506163047 52 162 0.0 1.0 0.00 0.00 0.00 1 1015.7
20260506161526 51 233 0.0 0.0 0.00 0.00 0.00 1 1015.9
20260506160020 51 206 0.0 0.0 0.00 0.00 0.00 1 1015.7
20260506154528 51 206 0.0 0.0 0.00 0.00 0.00 1 1015.9
20260506153011 50 206 0.0 1.0 0.00 0.00 0.00 1 1016.1
20260506151506 50 221 0.0 0.0 0.00 0.00 0.00 1 1015.8
20260506144556 50 221 0.0 0.0 0.00 0.00 0.00 1 1015.5
20260506143051 0 0.0 0.0 0.00 0.00 0.00 1015.1
20260506141548 0 0.0 0.0 0.00 0.00 0.00 1015.1
20260506140043 0 0.0 0.0 0.00 0.00 0.00 1015.3
20260506134538 0 0.0 0.0 0.00 0.00 0.00 1014.9
20260506133034 0 0.0 0.0 0.00 0.00 0.00 1014.8
20260506131535 0 0.0 0.0 0.00 0.00 0.00 1014.9
20260506130126 0 0.0 0.0 0.00 0.00 0.00 1014.7
20260506124521 0 0.0 0.0 0.00 0.00 0.00 1014.7
20260506123017 50 301 0.0 0.0 0.00 0.00 0.00 1 1014.5
20260506121513 50 301 0.0 0.0 0.00 0.00 0.00 1 1014.8
20260506120012 50 301 0.0 0.0 0.00 0.00 0.00 1 1014.8
20260506114504 50 301 0.0 0.0 0.00 0.00 0.00 1 1014.7
20260506113059 50 301 0.0 0.0 0.00 0.00 0.00 1 1014.5
20260506111555 50 301 0.0 0.0 0.00 0.00 0.00 1 1014.3
20260506110051 50 301 0.0 0.0 0.00 0.00 0.00 1 1014.1
20260506104548 50 281 0.0 0.0 0.00 0.00 0.00 1 1014.1
20260506103041 50 281 0.0 0.0 0.00 0.00 0.00 1 1014.0
20260506101537 50 281 0.0 1.0 0.00 0.00 0.00 1 1013.7
20260506100036 50 359 0.0 0.0 0.00 0.00 0.00 1 1013.6
20260506094527 51 127 0.0 0.0 0.00 0.00 0.00 1 1013.5
20260506093024 51 143 0.0 0.0 0.00 0.00 0.00 1 1013.6
20260506091519 51 144 0.0 0.0 0.00 0.00 0.00 1 1013.6
20260506090014 51 144 0.0 0.0 0.00 0.00 0.00 1 1013.5
20260506084510 51 144 0.0 0.0 0.00 0.00 0.00 1 1013.5
20260506083014 51 144 0.0 0.0 0.00 0.00 0.00 1 1013.4
20260506081501 51 144 0.0 0.0 0.00 0.00 0.00 1 1013.3
20260506073048 51 144 0.0 0.0 0.00 0.00 0.00 1 1013.0
20260506071544 51 145 0.0 0.0 0.00 0.00 0.00 1 1012.9
20260506061535 51 100 0.0 0.0 0.00 0.00 0.00 1 1012.6
20260506044530 50 162 0.0 0.0 0.00 0.00 0.00 1 1012.4
20260506043030 50 162 0.0 0.0 0.00 0.00 0.00 1 1012.3
20260506041546 51 162 0.0 0.0 0.00 0.00 0.00 1 1012.0
20260506040029 51 163 0.0 0.0 0.00 0.00 0.00 1 1011.8
20260506034533 51 161 0.0 0.0 0.00 0.00 0.00 1 1011.4
20260506033019 52 161 0.0 0.0 0.00 0.00 0.00 1 1011.3
20260506031515 52 161 0.0 0.0 0.00 0.00 0.00 1 1011.2
20260506030012 53 161 0.0 0.0 0.00 0.00 0.00 1 1011.2
20260506024505 54 161 0.0 0.0 0.00 0.00 0.00 5 1011.3
20260506023002 54 161 0.0 0.0 0.00 0.00 0.00 14 1011.1
20260506021557 55 161 0.0 0.0 0.00 0.00 0.00 22 1011.1
20260506020055 55 161 0.0 0.0 0.00 0.00 0.00 30 1011.2
20260506014548 56 161 0.0 0.0 0.00 0.00 0.00 38 1011.1
20260506013052 57 161 0.0 0.0 0.00 0.00 0.00 45 1011.2
20260506011543 58 238 0.0 1.0 0.00 0.00 0.00 48 1011.2
20260506010036 59 238 0.0 0.0 0.00 0.00 0.00 53 1011.2
20260506004531 60 39 0.0 1.0 0.00 0.00 0.00 56 1011.2
20260506003027 61 344 0.0 1.0 0.00 0.00 0.00 61 1011.2
20260506001522 63 340 0.0 0.0 0.00 0.00 0.00 61 1011.3
20260506000017 63 1 0.0 1.0 0.00 0.00 0.00 62 1011.4
20260505234512 64 27 0.0 5.0 0.00 0.00 0.00 61 1011.5
20260505233011 64 260 0.0 3.0 0.00 0.00 0.00 61 1011.7
20260505231504 64 322 0.0 1.0 0.00 0.00 0.00 62 1011.7
20260505230122 64 149 0.0 1.0 0.00 0.00 0.00 62 1011.8
20260505224556 65 122 0.0 1.0 0.00 0.00 0.00 61 1012.0
20260505223052 65 213 0.0 1.0 0.00 0.00 0.00 62 1012.1
20260505221555 64 312 0.0 3.0 0.00 0.00 0.00 62 1012.3
20260505220052 64 148 0.0 2.0 0.00 0.00 0.00 61 1012.3
20260505214538 64 56 0.0 1.0 0.00 0.00 0.00 62 1012.5
20260505213034 64 63 0.0 6.0 0.00 0.00 0.00 60 1012.5
20260505211531 63 20 0.0 1.0 0.00 0.00 0.00 58 1012.5
20260505210023 61 354 0.0 2.0 0.00 0.00 0.00 55 1012.6